[[{"header":{"parameterUnit":"m.s-1","parameterCategory":1,"la1":30.2991,"la2":30.254,"lo1":-89.0895,"lo2":-89.0444,"dy":0.0017,"dx":0.0017,"nx":28,"ny":28,"refTime":"2025-03-07T09:00:00:Z","depth":0,"parameterNumber":2,"parameterNumberName":"U-component_of_WINDS"},"data":[0,0,0,0,0,0,0,0,0,0,0,0,0,0,0,0,0,0,0,0,0,0,0,0,0,0,0,0,0,0,0,0,0,0,0,0,0,0,0,0,0,0,0,0,0,0,0,0,0,0,0,0,0,0,0,0,0,0,0.6153,0.6153,0,0.6128,0.6128,0.6128,0.6074,0.6073,0.6072,0.6071,0.6045,0.6046,0.6046,0,0,0,0,0,0,0,0,0,0,0,0,0,0.6154,0.6154,0.6153,0.6153,0.6153,0.6128,0.6128,0.6128,0.6074,0.6073,0.6072,0.607,0.6045,0.6046,0.6046,0,0,0,0,0,0,0,0,0,0,0,0,0,0.6144,0.6155,0.6153,0.6123,0.612,0.6128,0.6128,0.6128,0.6075,0.6073,0.6071,0.607,0.6045,0.6046,0.6046,0.6082,0,0,0.6048,0.6048,0,0,0,0,0,0,0,0,0.6145,0.6144,0.6128,0.6125,0.6122,0.6103,0.6119,0.6112,0.6075,0.6092,0.6071,0.6069,0.6066,0.6064,0.6063,0.6081,0.608,0.6048,0.6048,0.6048,0.6048,0,0,0,0,0,0,0,0.6145,0.6145,0.6143,0.6128,0.6124,0.6111,0.6107,0.6117,0.6088,0.609,0.6086,0.6084,0.6064,0.6063,0.6062,0.6079,0.6048,0.6048,0.6048,0.6049,0.6122,0.6123,0,0,0,0,0,0,0.6151,0.6146,0.6144,0.6143,0.613,0.6112,0.6108,0.611,0.6088,0.6083,0.6085,0.6082,0.6063,0.6062,0.6061,0.6099,0.6048,0.6049,0.6049,0.612,0.6122,0.6124,0,0,0,0,0,0,0.6151,0.6151,0.6145,0.6143,0.6141,0.6114,0.6117,0.6111,0.611,0.6084,0.6079,0.609,0.6062,0.6061,0.6076,0.6098,0.6049,0.6049,0.6118,0.6121,0.6123,0.6177,0,0,0,0,0,0,0.6151,0.6151,0.6165,0.6144,0.6142,0.6161,0.6118,0.6112,0.6111,0.6106,0.6087,0.6083,0.606,0.6076,0.6077,0.6097,0.605,0.6116,0.6119,0.6122,0.6173,0.6181,0.6187,0,0,0,0,0,0.6151,0.6182,0.6166,0.6166,0.6158,0.6163,0.6161,0.6135,0.6113,0.6126,0.6109,0.6083,0.6096,0.6078,0.6079,0.61,0.6115,0.6118,0.6122,0.617,0.6179,0.6187,0,0,0,0,0,0,0.6206,0.6178,0.616,0.6185,0.6176,0.6153,0.6169,0.6146,0.6144,0.6139,0.6107,0.6103,0.6123,0.6113,0.6094,0.6132,0.6101,0.6105,0.6137,0.6146,0.6153,0.6154,0.605,0,0,0,0,0,0.6221,0.6227,0.6203,0.6227,0.6223,0.6197,0.6198,0.6179,0.6168,0.6165,0.6149,0.614,0.6142,0.6144,0.6144,0.6172,0.6166,0.6187,0.6194,0.62,0.6203,0.6215,0.6223,0.6136,0.6136,0.6136,0,0,0.6252,0.6238,0.6244,0.6237,0.6228,0.6235,0.6194,0.6203,0.6207,0.6166,0.6179,0.6168,0.6156,0.6177,0.6186,0.617,0.6226,0.6205,0.621,0.6209,0.6219,0.6227,0.6235,0.6138,0.6138,0.6138,0,0,0.6311,0.6302,0.6319,0.6311,0.6298,0.628,0.6284,0.6265,0.6255,0.6268,0.6236,0.6241,0.6245,0.6237,0.6234,0.6289,0.6264,0.629,0.6327,0.6339,0.6345,0.6351,0.6368,0.6375,0.6294,0.6294,0.6294,0,0.6351,0.6359,0.6331,0.6341,0.6339,0.6302,0.6318,0.6312,0.63,0.6298,0.6281,0.6284,0.6274,0.6291,0.6304,0.6304,0.6306,0.6291,0.6347,0.6352,0.6357,0.6373,0.638,0.6297,0.6296,0.6296,0.6296,0,0.6407,0.6414,0.643,0.6417,0.6417,0.6431,0.6404,0.6407,0.6388,0.6372,0.6385,0.6371,0.6366,0.637,0.6352,0.6385,0.6374,0.6353,0.632,0.6369,0.6383,0.6389,0.6301,0.63,0.6299,0.6298,0,0,0.6499,0.6471,0.6477,0.647,0.6453,0.6457,0.6469,0.6464,0.6466,0.6459,0.6467,0.6471,0.645,0.6446,0.6426,0.6437,0.6478,0.6413,0.6412,0.6423,0.6511,0.6526,0.6533,0.6463,0.6464,0.6465,0.6511,0,0.6551,0.6569,0.6544,0.6567,0.6571,0.6536,0.6546,0.6536,0.6521,0.6523,0.6507,0.6509,0.6482,0.6479,0.6488,0.6471,0.6495,0.6468,0.6468,0.6468,0.6469,0.6541,0.6557,0.6602,0.6517,0.6518,0.6518,0,0.6615,0.661,0.6633,0.6612,0.6613,0.6623,0.6615,0.6618,0.6605,0.6594,0.6589,0.6566,0.6575,0.6546,0.6557,0.6539,0.6538,0.6529,0.653,0.6527,0.6494,0.6538,0.6615,0.6621,0.6527,0.6527,0.6526,0,0.6675,0.6675,0.6688,0.6684,0.6661,0.6668,0.6659,0.6645,0.6643,0.6637,0.6636,0.6632,0.6629,0.6625,0.6601,0.6582,0.6614,0.6584,0.6603,0.6604,0.661,0.6609,0.6686,0.6614,0.6614,0.6614,0.6613,0,0.6735,0.675,0.6715,0.6722,0.6738,0.6709,0.6725,0.6712,0.67,0.6704,0.6675,0.6679,0.6648,0.6649,0.663,0.6641,0.6641,0.6631,0.6625,0.6632,0.6633,0.6628,0.6624,0.6615,0.6615,0.6615,0.6614,0,0.6805,0.6782,0.6793,0.6771,0.6765,0.6777,0.6757,0.6763,0.6747,0.6752,0.6752,0.6726,0.6726,0.6702,0.6697,0.6684,0.6702,0.6692,0.6705,0.6701,0.6721,0.6719,0.6796,0.6803,0.6729,0.673,0.6731,0,0.6843,0.6853,0.6831,0.6832,0.6824,0.6825,0.6823,0.6796,0.6794,0.6781,0.6788,0.6785,0.6781,0.6781,0.6762,0.6757,0.6745,0.6773,0.6744,0.675,0.6743,0.6741,0.6741,0.6778,0.6779,0.678,0.678,0,0.6912,0.69,0.6898,0.6892,0.689,0.6884,0.6876,0.6878,0.6848,0.6848,0.6846,0.6843,0.6837,0.6834,0.6826,0.6816,0.6792,0.679,0.6794,0.6799,0.6806,0.68,0.6719,0.6788,0.6787,0.6786,0.6786,0.6786,0.6965,0.6972,0.6957,0.6955,0.6946,0.6939,0.6943,0.6927,0.6925,0.6918,0.6902,0.6903,0.6889,0.6875,0.6868,0.6867,0.6853,0.686,0.6861,0.6862,0.6865,0.6808,0.6866,0.6866,0.6866,0.6866,0.6865,0,0.703,0.7019,0.7018,0.7007,0.7005,0.6984,0.6974,0.6974,0.6975,0.6964,0.696,0.6958,0.6955,0.6935,0.6929,0.6933,0.6922,0.6932,0.693,0.6928,0.6879,0.6875,0.6941,0.6941,0.6941,0.6941,0.6941,0.6941,0.7064,0.7073,0.7059,0.7064,0.7052,0.7052,0.7048,0.7041,0.7032,0.7031,0.7028,0.7015,0.7,0.6993,0.6988,0.6983,0.6981,0.6994,0.6984,0.6939,0.6931,0.6924,0.692,0.6994,0.6995,0.7032,0.7033,0.7033]},{"header":{"parameterUnit":"m.s-1","parameterCategory":1,"la1":30.2991,"la2":30.254,"lo1":-89.0895,"lo2":-89.0444,"dy":0.0017,"dx":0.0017,"nx":28,"ny":28,"refTime":"2025-03-07T09:00:00:Z","depth":0,"parameterNumber":3,"parameterNumberName":"V-component_of_WINDS"},"data":[0,0,0,0,0,0,0,0,0,0,0,0,0,0,0,0,0,0,0,0,0,0,0,0,0,0,0,0,0,0,0,0,0,0,0,0,0,0,0,0,0,0,0,0,0,0,0,0,0,0,0,0,0,0,0,0,0,0,1.919,1.9191,0,1.9231,1.9231,1.9232,1.9192,1.919,1.9188,1.9187,1.9227,1.9229,1.9232,0,0,0,0,0,0,0,0,0,0,0,0,0,1.9075,1.9077,1.919,1.9191,1.9191,1.9231,1.9231,1.9232,1.9192,1.919,1.9188,1.9186,1.9226,1.9229,1.9232,0,0,0,0,0,0,0,0,0,0,0,0,0,1.9121,1.9078,1.919,1.9176,1.9175,1.9231,1.9231,1.9232,1.9192,1.919,1.9188,1.9185,1.9225,1.9229,1.9232,1.9303,0,0,1.9244,1.9246,0,0,0,0,0,0,0,0,1.9119,1.9125,1.9178,1.9177,1.9176,1.9204,1.9205,1.9256,1.9193,1.9186,1.9187,1.9184,1.9221,1.9225,1.9238,1.9305,1.9307,1.9244,1.9247,1.9248,1.9249,0,0,0,0,0,0,0,1.9115,1.9123,1.9206,1.9178,1.9178,1.9167,1.9171,1.9215,1.9216,1.9186,1.9183,1.9189,1.922,1.9234,1.9238,1.9307,1.9244,1.9248,1.925,1.9251,1.9432,1.9435,0,0,0,0,0,0,1.9114,1.9121,1.9205,1.9208,1.9141,1.9171,1.9175,1.9197,1.9216,1.9216,1.9191,1.9187,1.9229,1.9234,1.924,1.9322,1.9248,1.9252,1.9254,1.943,1.9433,1.9436,0,0,0,0,0,0,1.9112,1.9122,1.9203,1.9164,1.9173,1.9175,1.92,1.9199,1.9213,1.9219,1.9219,1.9205,1.9227,1.9234,1.9287,1.9323,1.9253,1.9257,1.9427,1.9431,1.9434,1.9489,0,0,0,0,0,0,1.9109,1.9121,1.9149,1.9165,1.9175,1.9252,1.9203,1.9202,1.922,1.9215,1.9232,1.9233,1.9226,1.9282,1.9291,1.9327,1.926,1.9424,1.9429,1.9433,1.9484,1.9494,1.9503,0,0,0,0,0,1.9105,1.9163,1.9151,1.9161,1.921,1.9254,1.926,1.9251,1.9223,1.9251,1.9254,1.9232,1.9318,1.9288,1.9298,1.9335,1.9421,1.9427,1.9433,1.948,1.9492,1.9503,0,0,0,0,0,0,1.9152,1.9165,1.9152,1.9217,1.9235,1.9247,1.9281,1.9265,1.929,1.9285,1.9272,1.9276,1.9332,1.9339,1.9305,1.9403,1.9365,1.9373,1.9397,1.9409,1.9418,1.9415,1.9263,0,0,0,0,0,1.917,1.9205,1.9214,1.9271,1.928,1.9279,1.9298,1.929,1.9307,1.9314,1.9321,1.9339,1.9369,1.9389,1.9418,1.9485,1.9487,1.9515,1.9525,1.9532,1.9539,1.9573,1.9585,1.9454,1.9454,1.9454,0,0,1.9208,1.9219,1.9242,1.9281,1.9293,1.9328,1.9286,1.9326,1.9351,1.932,1.937,1.9376,1.9394,1.9454,1.9481,1.9462,1.9576,1.954,1.9546,1.9548,1.958,1.9593,1.9604,1.9458,1.9458,1.9457,0,0,1.9294,1.9307,1.9355,1.9368,1.9388,1.9386,1.9398,1.9412,1.9415,1.9465,1.9442,1.9472,1.9525,1.9538,1.9552,1.9642,1.9622,1.9651,1.97,1.9734,1.9744,1.9753,1.9783,1.9795,1.9658,1.9658,1.9658,0,1.9338,1.9391,1.9381,1.9422,1.9439,1.9412,1.9459,1.9473,1.9501,1.9512,1.949,1.9555,1.9566,1.9627,1.9649,1.9662,1.9673,1.9649,1.9743,1.9752,1.9761,1.9789,1.9801,1.9662,1.9661,1.9661,1.9661,0,1.9444,1.9481,1.9517,1.9544,1.9565,1.9609,1.9604,1.9626,1.9616,1.9616,1.9666,1.9678,1.9707,1.9721,1.9712,1.9781,1.9768,1.9745,1.9706,1.9777,1.9803,1.9814,1.9666,1.9665,1.9664,1.9663,0,0,1.9562,1.9582,1.9595,1.9606,1.9625,1.9653,1.9695,1.9724,1.9742,1.9762,1.9796,1.9841,1.9819,1.9834,1.9826,1.9855,1.9923,1.9828,1.9828,1.9844,1.9998,2.0015,2.0028,1.991,1.9912,1.9914,1.9996,0,1.9648,1.9721,1.9712,1.9781,1.9814,1.9789,1.9825,1.984,1.9841,1.9868,1.9869,1.99,1.987,1.9879,1.9907,1.9909,1.9953,1.9903,1.994,1.9941,1.9936,2.0042,2.006,2.0137,2.0007,2.0008,2.001,0,1.9758,1.9781,1.9854,1.9866,1.9879,1.9912,1.9937,1.9964,1.9979,1.9978,1.9995,1.998,2.002,1.9981,2.0035,2.0001,2.0015,2.0018,2.0021,2.0024,1.9979,2.0046,2.0162,2.0173,2.0026,2.0025,2.0024,0,1.9835,1.9884,1.9934,1.9944,1.996,1.9983,1.9991,2.0004,2.0021,2.0043,2.0053,2.0079,2.0093,2.0113,2.0105,2.0077,2.0161,2.0121,2.0159,2.016,2.0178,2.0177,2.0296,2.0189,2.0189,2.0189,2.0188,0,1.9931,1.9976,1.9968,1.9999,2.0048,2.0036,2.0085,2.0089,2.0101,2.0131,2.011,2.0138,2.0127,2.0154,2.0148,2.0193,2.02,2.0199,2.0196,2.02,2.02,2.0209,2.0203,2.0192,2.0191,2.019,2.019,0,2.0025,2.0022,2.0074,2.0084,2.0088,2.0123,2.0131,2.0159,2.0158,2.0196,2.0204,2.0203,2.0233,2.0227,2.0261,2.0257,2.0313,2.0305,2.0308,2.0306,2.0344,2.034,2.0473,2.0489,2.0372,2.0374,2.0375,0,2.0087,2.0121,2.0134,2.0153,2.0162,2.0192,2.0209,2.0199,2.0218,2.0237,2.0262,2.0291,2.0313,2.0363,2.0364,2.0389,2.038,2.0425,2.0384,2.0386,2.038,2.0377,2.038,2.0433,2.0434,2.0436,2.0436,0,2.0195,2.0192,2.0218,2.0243,2.0264,2.0283,2.03,2.0317,2.0307,2.0329,2.036,2.0377,2.0411,2.0439,2.0463,2.0469,2.0451,2.0449,2.0459,2.0463,2.0463,2.0462,2.0329,2.0446,2.0445,2.0445,2.0444,2.0444,2.0274,2.0302,2.0316,2.0345,2.0357,2.0373,2.0399,2.0401,2.0427,2.0454,2.0446,2.048,2.0493,2.0522,2.0531,2.0557,2.0541,2.0556,2.0559,2.0563,2.0567,2.046,2.0562,2.0561,2.0561,2.0561,2.0561,0,2.0381,2.0388,2.0415,2.0439,2.0461,2.0443,2.046,2.048,2.0511,2.0524,2.0547,2.0581,2.0608,2.0611,2.0636,2.0656,2.0648,2.0663,2.0661,2.0662,2.0581,2.0569,2.0669,2.0669,2.0669,2.0669,2.0669,2.0669,2.0439,2.0485,2.0482,2.0534,2.054,2.0574,2.0585,2.06,2.061,2.065,2.0672,2.0674,2.0682,2.0708,2.0731,2.0731,2.074,2.0758,2.0755,2.0679,2.0668,2.0658,2.0647,2.0761,2.0761,2.0834,2.0834,2.0835]}]]